Weather in Klyuchevoy

Russia / Kemerovo Oblast     52°37′35″N   88°00′49″E
temp.,
°C
wind,
m/s
gust,
m/s
humid.,
%
clouds,
%
prec.,
mm/h
press.,
hPa
HPBL,
m
11 may, tue
tue1101:00+5ene71666100 0.0 1013732
04:00+4e51273100 0.0 1012501
07:00+4e387297 0.0 1013422
10:00+9e4654100 0.1 1011749
13:00+8ese467297 1.8 1012834
16:00+8ese2678100 0.3 1013634
19:00+6ssw2390100 0.3 1014122
22:00+5ssw129698 0.0 101648
12 may, wed
wed1201:00+5ssw1195100 0.0 101516
04:00+5ese0094100 0.0 101512
07:00+6sw1188100 0.0 101574
10:00+10sw1171100 0.0 1015759
13:00+10sw3377100 0.5 1015389
16:00+10wsw2384100 1.3 1015486
19:00+8wsw1294100 2.4 1016105
22:00+7wsw119998 1.0 101734
13 may, thu
thu1301:00+6wsw119994 1.2 101822
04:00+5sw119874 0.0 101812
07:00+6s1398100 0.0 1018135
10:00+10sw237876 0.0 1017690
13:00+13w226593 2.1 10151039
16:00+14wnw3360100 1.4 10141183
19:00+12wnw127187 2.6 101488
22:00+7ssw118828 0.3 101510
14 may, fri
fri1401:00+5wsw119399 0.4 101610
04:00+6sw1193100 0.1 101514
07:00+7ssw2495100 0.4 1015156
10:00+7ssw3796100 0.9 1016703
13:00+7wsw3892100 6.3 1018781
16:00+10wnw597067 1.4 10181416
19:00+8nw37785 2.4 1021787
22:00+4w1193100 0.1 102410
15 may, sat
sat1501:00+3w1194100 0.1 102510
04:00+3ssw119461 0.0 102510
07:00+5sw118941 0.0 102678
10:00+11sw355463 0.0 10251101
13:00+13w3446100 0.0 10241462
16:00+13w245394 0.0 1023824
19:00+14wnw345764 0.0 1023746
22:00+9sse007080 0.0 102410